Dickinson, ND

6:19 AM MDT on July 29, 2017 (GMT -0600)
Dickinson Municipal

Weather History for KDIK - September, 2012

Change the Weather History Date:

Wednesday, September 5, 2012

  Actual Average Record
Temperature  
Mean Temperature 61 °F 62 °F  
Max Temperature 78 °F 76 °F 104 °F (1978)
Min Temperature 44 °F 48 °F 31 °F (1965)
Degree Days  
Heating Degree Days 4 5  
Month to date heating degree days 6 23  
Since 1 July heating degree days 46 109  
Cooling Degree Days 0 2  
Month to date cooling degree days 4 12  
Year to date cooling degree days 558 398  
Growing Degree Days 10 (Base 50)    
Moisture  
Dew Point 36 °F    
Average Humidity 49    
Maximum Humidity 76    
Minimum Humidity 21    
Precipitation  
Precipitation 0.00 in 0.05 in 1.91 in (1981)
Month to date precipitation 0.06 0.25  
Year to date precipitation 8.48 12.54  
Sea Level Pressure  
Sea Level Pressure 29.97 in    
Wind  
Wind Speed 10 mph (WNW)    
Max Wind Speed 22 mph    
Max Gust Speed 29 mph    
Visibility 10 miles    
Events      
T = Trace of Precipitation, MM = Missing Value Source: NWS Daily Summary

Daily Weather History Graph

Daily Weather History Graph

Search for Another Location

Airport or City:

Trip Planner

Search our weather history database for the weather conditions in past years. The results will help you decide how hot, cold, wet, or windy it might be!

Date:

Astronomy

Sep. 05, 2012 Rise Set
Actual Time 6:16 AM MDT 7:21 PM MDT
Civil Twilight 5:45 AM MDT 7:52 PM MDT
Nautical Twilight 5:08 AM MDT 8:29 PM MDT
Astronomical Twilight 4:28 AM MDT 9:09 PM MDT
Moon 9:28 PM MDT (9/5) 11:46 AM MDT (9/5)
Length of Visible Light 14h 07m
Length of Day
13h 05m
Waning Gibbous, 75% of the Moon is Illuminated
Sep 5
Waning Gibbous
Sep 8
Last Quarter
Sep 15
New
Sep 22
First Quarter
Sep 29
Full

Hourly Weather History & Observations

Time (MDT) Temp. Windchill Dew Point Humidity Pressure Visibility Wind Dir Wind Speed Gust Speed Precip Events Conditions
12:56 AM 46.0 °F 41.9 °F 39.9 °F 79% 30.01 in 10.0 mi West 8.1 mph - N/A   Clear
1:56 AM 46.9 °F - 39.9 °F 77% 30.00 in 10.0 mi West 9.2 mph - N/A   Clear
2:56 AM 48.9 °F - 39.0 °F 69% 30.01 in 10.0 mi West 13.8 mph - N/A   Clear
3:56 AM 45.0 °F 39.7 °F 37.9 °F 76% 30.02 in 10.0 mi West 10.4 mph - N/A   Clear
4:56 AM 46.0 °F 41.0 °F 39.0 °F 76% 30.03 in 10.0 mi West 10.4 mph - N/A   Clear
5:56 AM 46.9 °F - 37.9 °F 71% 30.04 in 10.0 mi West 9.2 mph - N/A   Clear
6:56 AM 48.0 °F - 37.9 °F 68% 30.04 in 10.0 mi West 10.4 mph - N/A   Clear
7:56 AM 54.0 °F - 37.9 °F 55% 30.03 in 10.0 mi West 15.0 mph - N/A   Clear
8:56 AM 61.0 °F - 37.0 °F 41% 30.01 in 10.0 mi WNW 15.0 mph 21.9 mph N/A   Clear
9:56 AM 66.0 °F - 37.0 °F 34% 30.01 in 10.0 mi WNW 16.1 mph - N/A   Clear
10:56 AM 70.0 °F - 37.0 °F 30% 29.99 in 10.0 mi WNW 15.0 mph - N/A   Clear
11:56 AM 73.0 °F - 35.1 °F 25% 29.98 in 10.0 mi West 18.4 mph 26.5 mph N/A   Clear
12:56 PM 73.9 °F - 35.1 °F 24% 29.95 in 10.0 mi WNW 17.3 mph 27.6 mph N/A   Clear
1:56 PM 75.0 °F - 33.1 °F 22% 29.93 in 10.0 mi West 11.5 mph 18.4 mph N/A   Clear
2:56 PM 75.9 °F - 32.0 °F 20% 29.91 in 10.0 mi NW 11.5 mph 19.6 mph N/A   Clear
3:56 PM 75.0 °F - 32.0 °F 21% 29.91 in 10.0 mi NW 9.2 mph - N/A   Clear
4:56 PM 75.9 °F - 32.0 °F 20% 29.89 in 10.0 mi NW 9.2 mph - N/A   Clear
5:56 PM 75.0 °F - 33.1 °F 22% 29.89 in 10.0 mi NW 8.1 mph - N/A   Clear
6:56 PM 71.1 °F - 33.1 °F 25% 29.90 in 10.0 mi Calm Calm - N/A   Clear
7:56 PM 66.0 °F - 34.0 °F 30% 29.90 in 10.0 mi Calm Calm - N/A   Clear
8:56 PM 59.0 °F - 34.0 °F 39% 29.90 in 10.0 mi SE 3.5 mph - N/A   Clear
10:56 PM 51.1 °F - 34.0 °F 52% 29.89 in 10.0 mi South 8.1 mph - N/A   Clear